SCOUT G-1 R/B

Satellite information

Favourite Embed

Satellite Type and Status

ROCKET BODYIN ORBIT

Key statistics

Satellite SCOUT G-1 R/B at a glance.

Uptime

15290

Days in orbit

Revolutions

≈ 14.4

Per day

Orbit

LEO

Low Earth Orbit

Inclination

82.0

Latest

Satellite identification and parameters

Extended collection of information and parameters for SCOUT G-1 R/B.

Object identification

Identified? True

Debris? False

Object name: SCOUT G-1 R/B

International designator: 1983-063B

Object number (NORAD): 14155

Object ID (CCSDS): 14155

Country: UNITED STATES OF AMERICA (US)

Current information (Y/N): Y

RCS size: MEDIUM

Orbital parameters

Period: 99.783 minutes

Inclination: 82.019 deg

SMA: 7126.295 km

Apoapsis: 773.098 km

Periapsis: 723.223 km

RAAN: 123.5587 deg

Eccentricy: 0.0034994

Argument of periapsis: 264.758 deg

Mean anomaly: 109.3659 deg

Mean motion: 14.43135235 rev/day

Mean motion (dot): 0.00000942 rev/day2

B* drag term: 0.00027404 1/REarth

Two-line elements (TLE)

Creation date: May 7, 2025, 3:14 a.m.

Reference frame: TEME

Reference center: EARTH

Epoch: May 6, 2025, 10:15 p.m. UTC

TLE line 0: 0 SCOUT G-1 R/B

TLE line 1: 1 14155U 83063B 25126.92730016 .00000942 00000-0 27404-3 0 9995

TLE line 2: 2 14155 82.0190 123.5587 0034994 264.7580 109.3659 14.43135235192792

Live tracking on map

Real-time ground track for satellite SCOUT G-1 R/B.

In-orbit conjunctions

A list of the most updated potential collisions computed for object SCOUT G-1 R/B.

Target Orbit TCA Probability of collision Miss distance Type
NOAA 16 DEB SSO 2025-04-06 22:02:39 0.0001831752 409.0 (m) DEBRIS
ORSTED SSO 2025-03-29 18:34:59 0.0001172583 938.0 (m) PAYLOAD
FENGYUN 1C DEB SSO 2024-12-20 15:16:49 0.0002448382 169.0 (m) DEBRIS
COSMOS 494 LEO 2024-10-19 22:50:34 0.000750965 468.0 (m) PAYLOAD
COSMOS 2251 DEB LEO 2024-08-22 13:30:20 0.0001314223 449.0 (m) DEBRIS

Associated space launch

Refurbished Transit-O 16 satellite used to carry remote-sensing experiments and in situ measurements

SCOUT G-1 R/B was lifted into orbit during the mission ‘Scout D-1 | HILAT’, on board a Scout D-1 space rocket.

The launch took place on June 27, 1983, 3:37 p.m. from Space Launch Complex 5.

For more information about the launch, click the button.

Launch to space Scout D-1 | HILAT
Scout D-1 | HILAT

Agency: N/A

Status: Launch Successful

Launch date: June 27, 1983, 3:37 p.m. UTC

Rocket: Scout D-1

Launch pad: Space Launch Complex 5

Location: Vandenberg SFB, CA, USA

...

Latest news about this satellite

There are no fresh news available about this satellite. Check back as we update our databases every day.


Newsletter sign-up

Weekly statistics, charts and insights to help you stay on top of the space industry.